Regional Weather Roundup
Issued by NWS

Home | Current Version | Previous Version | Text Only | Print | Product List | Glossary Off
Versions: 1 2 3 4 5 6 7 8 9 10 11 12 13 14 15 16 17 18 19 20 21 22 23 24 25 26 27 28 29 30 31 32 33 34 35 36 37 38 39 40 41 42 43 44 45 46 47 48 49 50

000
ASUS43 KLOT 220509
RWRIL

ILLINOIS REGIONAL WEATHER ROUNDUP
NATIONAL WEATHER SERVICE CHICAGO/ROMEOVILLE IL
1200 AM CDT SAT JUL 22 2017

NOTE: "FAIR" INDICATES FEW OR NO CLOUDS BELOW 12,000 FEET WITH NO
SIGNIFICANT WEATHER AND/OR OBSTRUCTIONS TO VISIBILITY.

* THESE STATIONS ARE NOT UNDER NWS QUALITY CONTROL. THEY ALSO MAY NOT
  REPORT WEATHER SUCH AS PRECIPITATION OR FOG.

ILZ001-002-007-009-015-016-024-220600-
NORTHWEST ILLINOIS

CITY           SKY/WX    TMP DP  RH WIND       PRES   REMARKS
MOLINE         CLEAR     76  72  87 E9        29.78F
STERLING*      CLOUDY    70  69  97 SE8       29.81S
SAVANNA*       CLOUDY    70  68  95 E10G21    29.81R
$$

ILZ003-004-008-010-011-017-018-220600-
NORTH CENTRAL ILLINOIS

CITY           SKY/WX    TMP DP  RH WIND       PRES   REMARKS
ROCKFORD       TSTM      73  69  87 VRB3      29.85S
FREEPORT*      TSTM      69  69  99 W6        29.89R VSB 1
ROCHELLE*      CLOUDY    69  68  98 S5        29.84F
DE KALB*       CLOUDY    70  69  98 SE5       29.85F
PERU*          CLOUDY    69  67  95 SE7       29.85F
$$

ILZ005-006-012>014-019>023-220600-
NORTHEAST ILLINOIS

CITY           SKY/WX    TMP DP  RH WIND       PRES   REMARKS
CHICAGO-OHARE  TSTM      75  71  87 SE6       29.85F
CHICAGO-MIDWAY TSTM      75  72  90 S12       29.86F FOG
AURORA         TSTM      71  71 100 W9        29.87F
LANSING*       TSTM      72  69  92 SE13      29.91R
JOLIET*        TSTM      73  71  95 W5        29.87F
WAUKEGAN       LGT RAIN  72  72 100 SE12G20   29.80F
DUPAGE AIRPORT LGT RAIN  70  70 100 S3        29.83F
WHEELING       LGT RAIN  74  74 100 SE13      29.84F
MORRIS*        TSTM      70  69  96 W9        29.88R
ROMEOVILLE*    TSTM      71  69  92 S8        29.86F
NORTHERLY ISL    N/A     73  71  93 CALM        N/A
$$

LMZ740>746-220600-
SOUTHERN LAKE MICHIGAN

STATION/POSITION SKY/WX   TEMP    WIND        PRES    VSBY  WAVE
                          AIR SEA DIR/SP/G                  HT/PER
                          (F)     (DEG/KT/KT) (MB)    (MI)  (FT/S)
SOUTHERN BUOY              73 71  120/ 14/ 16 1011.4          0
WILMETTE HARBOR            72 73  140/ 10/ 14   N/A           1/ 3
HARRISON CRIB              75     170/  7/  8   N/A
BURNHAM HARBOR             74                   N/A
CALUMET HARBOR             74     150/  4/  8 1011.1F
BURNS HARBOR               73     190/ 17/ 21 1012.9S
MICHIGAN CITY              73     150/  5/  7   N/A
MICHIGAN CITY 6N           74 75  200/ 14/ 19   N/A           1
ST. JOSEPH                 75 78  160/ 10/ 12 1011.3          1
$$

ILZ025>027-034>036-040-047-049-050-058-095>099-220600-
WEST-CENTRAL ILLINOIS

CITY           SKY/WX    TMP DP  RH WIND       PRES   REMARKS
QUINCY         CLEAR     81  71  71 S8        29.83F HX  85
GALESBURG*     CLOUDY    81  72  72 S9        29.79F HX  86
MACOMB*        CLOUDY    83  69  62 S9        29.82F HX  87
JACKSONVILLE*  CLEAR     83  69  64 S7        29.85S HX  86
PITTSFIELD*    CLEAR     83  71  66 S7        29.86F HX  87
$$

ILZ028>032-037-038-041>044-048-051>054-059>061-220600-
CENTRAL ILLINOIS

CITY           SKY/WX    TMP DP  RH WIND       PRES   REMARKS
PONTIAC        LGT RAIN  70  70  99 N18G32    29.90R
BLOOMINGTON    CLOUDY    81  76  84 S9        29.86F HX  87
DECATUR        CLOUDY    84  75  74 S14       29.86F HX  92
PEORIA         CLOUDY    84  73  69 S9        29.81F HX  90
LACON*         CLOUDY    72  68  88 E9        29.83F
LINCOLN*       CLOUDY    83  78  84 S5        29.84F HX  92
SPRINGFIELD    CLEAR     87  75  67 SW9       29.85F HX  96
TAYLORVILLE    CLEAR     82  76  83 S10       29.86F HX  89
$$

ILZ033-039-045-046-055>057-062-063-220600-
EAST-CENTRAL ILLINOIS

CITY           SKY/WX    TMP DP  RH WIND       PRES   REMARKS
CHAMPAIGN      CLOUDY    81  77  88 S9        29.88R HX  88
RANTOUL*       CLOUDY    81  78  90 S3        29.87S HX  88
MATTOON        CLOUDY    83  79  88 S7        29.88F HX  94
PARIS*         CLOUDY    80  77  91 S7        29.90S HX  85
$$

ILZ079-100>102-220600-
SOUTHWEST ILLINOIS

CITY           SKY/WX    TMP DP  RH WIND       PRES   REMARKS
ALTON          PTCLDY    84  76  77 S8        29.89F HX  92
BELLEVILLE     CLEAR     84  76  76 SW7       29.91S HX  93
CAHOKIA*       CLEAR     89  72  56 SW8       29.89S HX  96
SPARTA*        CLEAR     84  76  77 S8        29.93S HX  92
$$

ILZ064>066-069>071-074>076-080>082-084>086-088>090-092>094-220600-
SOUTH-CENTRAL ILLINOIS

CITY           SKY/WX    TMP DP  RH WIND       PRES   REMARKS
CARBONDALE     CLEAR     81  77  88 SW7       29.93F HX  88
CAIRO*         CLEAR     82  78  89 S3        29.94F HX  90
EFFINGHAM*     CLEAR     84  76  76 S7        29.91F HX  92
MARION         CLEAR     82  77  83 SW6       29.94S HX  91
CENTRALIA*     CLEAR     84  77  80 S6        29.91F HX  94
SALEM*         CLEAR     85  75  72 S7        29.91F HX  94
METROPOLIS*    CLEAR     84  77  80 SW3       29.96S HX  93
$$

ILZ067-068-072-073-078-083-087-091-220600-
SOUTHEAST ILLINOIS

CITY           SKY/WX    TMP DP  RH WIND       PRES   REMARKS
LAWRENCEVILLE  CLEAR     83  77  82 SW7       29.91F HX  92
FLORA*         CLEAR     82  77  83 SW7       29.91F HX  91
FAIRFIELD*     CLEAR     81  78  89 S3        29.91F HX  89
HARRISBURG*    CLEAR     80  77  89 CALM      29.94S HX  87
ROBINSON*      CLOUDY    82  77  85 SW6       29.90F HX  89
CARMI*         CLEAR     78  76  94 S5        29.93S HX  82
$$

ABBREVIATIONS USED IN REMARKS
   TC - TEMPERATURE IN CELSIUS
  WCI - WIND CHILL INDEX
   HX - HEAT INDEX
  VSB - VISIBILITY
$$





USA.gov is the U.S. government's official web portal to all federal, state and local government web resources and services.